DW4116 Weather Reports


time (UTC)temp
F
wind
direction
speed
knots
gust
knots
rain 1hr
in
rain 24hr
in
rain mn
in
humidity
%
barometer
mb
20260504150903 68 360 3.5 8.7 0.00 0.00 0.00 52 1013.1
20260504140904 64 360 3.5 9.6 0.00 0.00 0.00 58 1013.3
20260504130218 59 360 6.1 14.8 0.00 0.00 0.00 72 1013.9
20260504100220 49 360 0.9 3.5 0.00 0.00 0.00 83 1014.4
20260504081803 49 360 0.9 4.3 0.00 0.00 0.00 75 1014.5
20260504080903 50 360 1.7 5.2 0.00 0.00 0.00 74 1014.6
20260504050004 42 360 0.0 3.5 0.00 0.00 0.00 80 1014.2
20260504045403 42 360 0.0 3.5 0.00 0.00 0.00 81 1014.2
20260504044504 42 360 0.0 0.9 0.00 0.00 0.00 81 1014.2
20260504043603 42 0 0.0 0.0 0.00 0.00 0.00 81 1014.2
20260504042704 42 0 0.0 0.0 0.00 0.00 0.00 81 1014.1
20260504041804 42 0 0.0 0.0 0.00 0.00 0.00 80 1014.2
20260504041121 42 0 0.0 0.0 0.00 0.00 0.00 79 1014.1
20260504040218 42 0 0.0 0.0 0.00 0.00 0.00 79 1014.0
20260504035404 42 0 0.0 0.0 0.00 0.00 0.00 78 1013.9
20260504034503 42 0 0.0 0.0 0.00 0.00 0.00 78 1013.8
20260504033604 43 0 0.0 0.0 0.00 0.00 0.00 78 1013.7
20260504032703 43 360 0.0 0.9 0.00 0.00 0.00 77 1013.7
20260504031804 43 360 0.0 0.9 0.00 0.00 0.00 77 1013.6
20260504030903 43 360 0.0 0.9 0.00 0.00 0.00 77 1013.6
20260504030219 43 360 0.0 0.9 0.00 0.00 0.00 76 1013.6
20260504025404 44 360 0.0 0.9 0.00 0.00 0.00 75 1013.6
20260504024718 44 360 0.0 1.7 0.00 0.00 0.00 75 1013.6
20260504023603 44 0 0.0 0.0 0.00 0.00 0.00 73 1013.5
20260504022703 44 360 0.0 0.9 0.00 0.00 0.00 72 1013.6
20260504022020 44 360 0.0 0.9 0.00 0.00 0.00 72 1013.6
20260504020903 45 0 0.0 0.0 0.00 0.00 0.00 70 1013.7
20260504020220 45 360 0.0 0.9 0.00 0.00 0.00 69 1013.7
20260504015403 45 0 0.0 0.0 0.00 0.00 0.00 68 1013.6
20260504014504 45 360 0.0 0.9 0.00 0.00 0.00 67 1013.6
20260504013604 46 0 0.0 0.0 0.00 0.00 0.00 65 1013.5
20260504012704 46 0 0.0 0.0 0.00 0.00 0.00 63 1013.3
20260504011803 47 0 0.0 0.0 0.00 0.00 0.00 62 1013.2
20260504010904 47 360 0.0 0.9 0.00 0.00 0.00 61 1013.1
20260504010003 48 360 0.0 0.9 0.00 0.00 0.00 60 1013.1
20260504005403 48 0 0.0 0.0 0.00 0.00 0.00 57 1013.0
20260504004504 49 0 0.0 0.0 0.00 0.00 0.00 55 1012.9
20260504003604 50 0 0.0 0.0 0.00 0.00 0.00 53 1012.8
20260504002704 51 0 0.0 0.0 0.00 0.00 0.00 53 1012.5
20260504001804 52 0 0.0 0.0 0.00 0.00 0.00 51 1012.5
20260504000903 53 0 0.0 0.0 0.00 0.00 0.00 49 1012.4
20260504000003 54 360 0.9 2.6 0.00 0.00 0.00 47 1012.3
20260503235618 55 360 0.9 4.3 0.00 0.00 0.00 46 1012.3
20260503234504 56 360 0.9 3.5 0.00 0.00 0.00 44 1012.3
20260503233604 57 360 1.7 4.3 0.00 0.00 0.00 40 1012.2
20260503232920 57 360 2.6 7.8 0.00 0.00 0.00 39 1012.2
20260503232017 58 360 2.6 7.8 0.00 0.00 0.00 37 1012.2
20260503230904 59 360 2.6 7.8 0.00 0.00 0.00 35 1012.1
20260503230003 59 360 3.5 8.7 0.00 0.00 0.00 35 1012.0
20260503225403 60 360 3.5 9.6 0.00 0.00 0.00 35 1012.0
20260503224503 61 360 4.3 10.4 0.00 0.00 0.00 34 1012.0
20260503223604 61 360 5.2 13.0 0.00 0.00 0.00 33 1012.0
20260503222703 60 360 4.3 13.0 0.00 0.00 0.00 33 1012.0
20260503222017 60 360 5.2 11.3 0.00 0.00 0.00 35 1012.0
20260503220903 61 360 4.3 16.5 0.00 0.00 0.00 34 1012.0
20260503220003 61 360 6.1 13.0 0.00 0.00 0.00 36 1012.0
20260503215403 61 360 5.2 13.0 0.00 0.00 0.00 35 1012.0
20260503214503 61 360 5.2 13.9 0.00 0.00 0.00 34 1012.0
20260503213604 62 360 5.2 13.9 0.00 0.00 0.00 34 1012.0
20260503212703 62 360 4.3 13.0 0.00 0.00 0.00 37 1011.9
20260503211804 61 360 5.2 13.0 0.00 0.00 0.00 34 1011.9
20260503210904 62 360 4.3 14.8 0.00 0.00 0.00 35 1012.0
20260503210005 61 360 5.2 14.8 0.00 0.00 0.00 34 1012.0
20260503205403 61 360 6.1 13.9 0.00 0.00 0.00 34 1011.9
20260503204504 61 360 7.0 22.6 0.00 0.00 0.00 34 1012.1
20260503203603 61 360 6.1 13.0 0.00 0.00 0.00 34 1012.1
20260503202916 61 360 7.0 16.5 0.00 0.00 0.00 34 1012.1
20260503202019 61 360 7.0 15.6 0.00 0.00 0.00 34 1012.2
20260503200904 61 360 6.1 18.2 0.00 0.00 0.00 38 1012.0
20260503200003 61 360 6.1 13.9 0.00 0.00 0.00 35 1012.2
20260503195403 60 360 6.1 13.9 0.00 0.00 0.00 37 1012.4
20260503194503 61 360 6.1 13.9 0.00 0.00 0.00 36 1012.3
20260503193603 60 360 7.8 16.5 0.00 0.00 0.00 35 1012.3
20260503192703 61 331 7.0 16.5 0.00 0.00 0.00 34 1012.2
20260503191804 60 274 7.0 14.8 0.00 0.00 0.00 38 1012.3
20260503190903 60 359 6.1 16.5 0.00 0.00 0.00 37 1012.5
20260503190003 60 360 7.0 18.2 0.00 0.00 0.00 42 1012.6
20260503185404 59 360 7.0 18.2 0.00 0.00 0.00 38 1012.7
20260503184503 60 360 7.0 15.6 0.00 0.00 0.00 39 1012.8
20260503183604 59 360 7.8 19.1 0.00 0.00 0.00 39 1013.0
20260503182704 59 360 6.1 17.4 0.00 0.00 0.00 38 1013.1
20260503181803 59 360 5.2 13.0 0.00 0.00 0.00 40 1012.9
20260503180903 59 360 5.2 13.0 0.00 0.00 0.00 41 1012.9
20260503180220 58 360 5.2 13.0 0.00 0.00 0.00 43 1012.9
20260503175404 57 360 7.0 21.7 0.00 0.00 0.00 41 1012.9
20260503174504 57 360 6.1 14.8 0.00 0.00 0.00 42 1013.1
20260503173603 58 360 7.0 15.6 0.00 0.00 0.00 45 1013.2
20260503172703 57 360 6.1 15.6 0.00 0.00 0.00 39 1013.1
20260503171803 57 360 6.1 16.5 0.00 0.00 0.00 45 1013.1
20260503170904 56 360 6.1 15.6 0.00 0.00 0.00 40 1013.2